Location: Unspecified
(0.0000°N, 0.0000°E)
Time: 16:19:03
(UTC+00:00)

Falcon 9 debris - Pass Details

Date: 27 November 2019
Orbit: 431 x 436 km, 53.0° (Epoch: 13 December)

Event Time Altitude Azimuth Distance (km) Brightness Sun altitude
Rises 18:37:51 0° 180° (S) 2,409 ? -11.7°
Reaches altitude 10° 18:41:16 10° 144° (SE) 1,538 ? -12.5°
Maximum altitude 18:42:25 11° 125° (SE) 1,459 ? -12.8°
Enters shadow 18:42:51 11° 117° (ESE) 1,470 ? -12.9°
